Time,TemperatureF,DewpointF,PressureIn,WindDirection,WindDirectionDegrees,WindSpeedMPH,WindSpeedGustMPH,Humidity,HourlyPrecipIn,Conditions,Clouds,dailyrainin,SoftwareType,DateUTC
2013-06-11 00:01:00,76.6,67.7,30.00,NNW,343,0.0,0.0,74,0.00,,---,0.00,VWS V14.01,2013-06-11 04:01:00,
2013-06-11 00:06:00,76.6,67.7,30.00,North,7,0.0,0.0,74,0.00,,---,0.00,VWS V14.01,2013-06-11 04:06:00,
2013-06-11 00:11:00,76.6,67.7,30.00,NNW,348,0.0,0.0,74,0.00,,---,0.00,VWS V14.01,2013-06-11 04:11:00,
2013-06-11 00:16:00,76.5,67.6,30.00,NNE,29,3.1,3.6,74,0.00,,---,0.00,VWS V14.01,2013-06-11 04:16:00,
2013-06-11 00:21:00,76.5,67.9,30.00,North,357,0.0,0.0,75,0.00,,---,0.00,VWS V14.01,2013-06-11 04:21:00,
2013-06-11 00:26:00,76.5,67.9,30.00,North,6,0.0,0.0,75,0.00,,---,0.00,VWS V14.01,2013-06-11 04:26:00,
2013-06-11 00:31:00,76.3,68.2,30.00,North,6,0.0,0.0,76,0.00,,---,0.00,VWS V14.01,2013-06-11 04:31:00,
2013-06-11 00:36:00,76.3,68.2,30.00,North,6,0.0,0.0,76,0.00,,---,0.00,VWS V14.01,2013-06-11 04:36:00,
2013-06-11 00:41:00,76.1,68.4,30.00,North,7,0.0,0.0,77,0.00,,---,0.00,VWS V14.01,2013-06-11 04:41:00,
2013-06-11 00:46:00,75.9,68.6,30.00,North,357,0.0,0.0,78,0.00,,---,0.00,VWS V14.01,2013-06-11 04:46:00,
2013-06-11 00:52:00,75.9,68.9,30.00,North,357,0.0,0.0,79,0.00,,---,0.00,VWS V14.01,2013-06-11 04:52:00,
2013-06-11 00:56:00,75.9,68.9,30.00,North,1,0.0,0.0,79,0.00,,---,0.00,VWS V14.01,2013-06-11 04:56:00,
2013-06-11 01:01:00,75.9,68.9,30.00,North,3,0.0,0.0,79,0.00,,---,0.00,VWS V14.01,2013-06-11 05:01:00,
2013-06-11 01:07:00,75.7,69.1,30.00,North,3,0.0,0.0,80,0.00,,---,0.00,VWS V14.01,2013-06-11 05:07:00,
2013-06-11 01:12:00,75.9,69.3,30.00,North,3,0.0,0.0,80,0.00,,---,0.00,VWS V14.01,2013-06-11 05:12:00,
2013-06-11 01:17:00,75.7,69.1,30.00,North,3,0.0,0.0,80,0.00,,---,0.00,VWS V14.01,2013-06-11 05:17:00,
2013-06-11 01:22:00,75.6,69.0,30.00,North,1,0.0,0.0,80,0.00,,---,0.00,VWS V14.01,2013-06-11 05:22:00,
2013-06-11 01:27:00,75.6,69.0,30.00,North,1,0.0,0.0,80,0.00,,---,0.00,VWS V14.01,2013-06-11 05:27:00,
2013-06-11 01:32:00,75.4,69.2,30.00,North,10,0.0,0.0,81,0.00,,---,0.00,VWS V14.01,2013-06-11 05:32:00,
2013-06-11 01:37:00,75.4,69.5,30.00,North,10,0.0,0.0,82,0.00,,---,0.00,VWS V14.01,2013-06-11 05:37:00,
2013-06-11 01:42:00,75.4,69.5,30.00,North,7,2.2,2.7,82,0.00,,---,0.00,VWS V14.01,2013-06-11 05:42:00,
2013-06-11 01:47:00,75.2,69.7,30.00,North,6,2.7,2.7,83,0.00,,---,0.00,VWS V14.01,2013-06-11 05:47:00,
2013-06-11 01:52:00,75.2,69.7,30.00,North,3,0.0,0.0,83,0.00,,---,0.00,VWS V14.01,2013-06-11 05:52:00,
2013-06-11 01:57:00,75.2,69.7,30.00,NNE,24,0.0,2.7,83,0.00,,---,0.00,VWS V14.01,2013-06-11 05:57:00,
2013-06-11 02:02:00,75.2,69.7,30.00,NNE,19,0.0,0.0,83,0.00,,---,0.00,VWS V14.01,2013-06-11 06:02:00,
2013-06-11 02:07:00,75.2,69.7,30.00,NNE,25,0.0,0.0,83,0.00,,---,0.00,VWS V14.01,2013-06-11 06:07:00,
2013-06-11 02:12:00,75.2,70.0,30.00,North,1,0.0,0.0,84,0.00,,---,0.00,VWS V14.01,2013-06-11 06:12:00,
2013-06-11 02:17:00,75.0,69.9,30.00,North,2,0.0,0.0,84,0.00,,---,0.00,VWS V14.01,2013-06-11 06:17:00,
2013-06-11 02:22:00,75.0,70.2,30.00,North,2,0.0,0.0,85,0.00,,---,0.00,VWS V14.01,2013-06-11 06:22:00,
2013-06-11 02:27:00,75.0,70.2,30.00,North,1,0.0,0.0,85,0.00,,---,0.00,VWS V14.01,2013-06-11 06:27:00,
2013-06-11 02:32:00,75.0,70.2,30.00,North,2,0.0,0.0,85,0.00,,---,0.00,VWS V14.01,2013-06-11 06:32:00,
2013-06-11 02:37:00,75.0,70.2,30.00,North,2,0.0,0.0,85,0.00,,---,0.00,VWS V14.01,2013-06-11 06:37:00,
2013-06-11 02:42:00,75.0,70.6,30.00,North,2,0.0,0.0,86,0.00,,---,0.00,VWS V14.01,2013-06-11 06:42:00,
2013-06-11 02:47:00,74.8,70.4,30.00,North,2,0.0,0.0,86,0.00,,---,0.00,VWS V14.01,2013-06-11 06:47:00,
2013-06-11 02:52:00,74.8,70.4,30.00,North,2,0.0,0.0,86,0.00,,---,0.00,VWS V14.01,2013-06-11 06:52:00,
2013-06-11 02:57:00,74.7,70.5,30.00,North,2,0.0,0.0,87,0.00,,---,0.00,VWS V14.01,2013-06-11 06:57:00,
2013-06-11 03:02:00,74.8,70.7,30.00,North,2,0.0,0.0,87,0.00,,---,0.00,VWS V14.01,2013-06-11 07:02:00,
2013-06-11 03:07:00,74.7,70.9,30.00,North,2,0.0,0.0,88,0.00,,---,0.00,VWS V14.01,2013-06-11 07:07:00,
2013-06-11 03:12:00,74.7,70.9,30.00,North,2,0.0,0.0,88,0.00,,---,0.00,VWS V14.01,2013-06-11 07:12:00,
2013-06-11 03:17:00,74.8,71.4,30.00,North,2,0.0,0.0,89,0.00,,---,0.00,VWS V14.01,2013-06-11 07:17:00,
2013-06-11 03:22:00,74.7,71.2,30.00,North,2,0.0,0.0,89,0.00,,---,0.00,VWS V14.01,2013-06-11 07:22:00,
2013-06-11 03:27:00,74.7,71.2,30.00,North,2,0.0,0.0,89,0.00,,---,0.00,VWS V14.01,2013-06-11 07:27:00,
2013-06-11 03:32:00,74.5,71.0,30.00,North,2,0.0,0.0,89,0.00,,---,0.00,VWS V14.01,2013-06-11 07:32:00,
2013-06-11 03:37:00,74.5,71.0,30.00,North,2,0.0,0.0,89,0.00,,---,0.00,VWS V14.01,2013-06-11 07:37:00,
2013-06-11 03:42:00,74.5,71.4,30.00,North,2,0.0,0.0,90,0.00,,---,0.00,VWS V14.01,2013-06-11 07:42:00,
2013-06-11 03:47:00,74.5,71.4,30.00,North,2,0.0,0.0,90,0.00,,---,0.00,VWS V14.01,2013-06-11 07:47:00,
2013-06-11 03:52:00,74.3,71.2,30.00,North,2,0.0,0.0,90,0.00,,---,0.00,VWS V14.01,2013-06-11 07:52:00,
2013-06-11 03:57:00,74.3,71.5,30.00,North,2,0.0,0.0,91,0.00,,---,0.00,VWS V14.01,2013-06-11 07:57:00,
2013-06-11 04:02:00,74.3,71.5,30.00,North,2,0.0,0.0,91,0.00,,---,0.00,VWS V14.01,2013-06-11 08:02:00,
2013-06-11 04:07:00,74.1,71.3,30.00,North,2,0.0,0.0,91,0.00,,---,0.00,VWS V14.01,2013-06-11 08:07:00,
2013-06-11 04:12:00,74.1,71.3,30.00,North,2,0.0,0.0,91,0.00,,---,0.00,VWS V14.01,2013-06-11 08:12:00,
2013-06-11 04:17:00,74.1,71.3,30.00,North,2,0.0,0.0,91,0.00,,---,0.00,VWS V14.01,2013-06-11 08:17:00,
2013-06-11 04:22:00,74.1,71.7,30.00,North,2,0.0,0.0,92,0.00,,---,0.00,VWS V14.01,2013-06-11 08:22:00,
2013-06-11 04:27:00,74.1,71.7,30.00,North,2,0.0,0.0,92,0.00,,---,0.00,VWS V14.01,2013-06-11 08:27:00,
2013-06-11 04:32:00,74.3,71.8,29.97,North,2,0.0,0.0,92,0.00,,---,0.00,VWS V14.01,2013-06-11 08:32:00,
2013-06-11 04:37:00,74.3,71.8,29.97,North,2,0.0,0.0,92,0.00,,---,0.00,VWS V14.01,2013-06-11 08:37:00,
2013-06-11 04:42:00,74.3,71.8,29.97,North,2,0.0,0.0,92,0.00,,---,0.00,VWS V14.01,2013-06-11 08:42:00,
2013-06-11 04:47:00,74.3,71.8,30.00,North,2,0.0,0.0,92,0.00,,---,0.00,VWS V14.01,2013-06-11 08:47:00,
2013-06-11 04:52:00,74.3,71.8,30.00,North,2,0.0,0.0,92,0.00,,---,0.00,VWS V14.01,2013-06-11 08:52:00,
2013-06-11 04:57:00,74.3,71.8,30.00,North,2,0.0,0.0,92,0.00,,---,0.00,VWS V14.01,2013-06-11 08:57:00,
2013-06-11 05:02:00,74.3,71.8,30.00,North,2,0.0,0.0,92,0.00,,---,0.00,VWS V14.01,2013-06-11 09:02:00,
2013-06-11 05:07:00,74.1,71.7,30.00,North,2,0.0,0.0,92,0.00,,---,0.00,VWS V14.01,2013-06-11 09:07:00,
2013-06-11 05:12:00,74.1,71.7,30.00,North,2,0.0,0.0,92,0.00,,---,0.00,VWS V14.01,2013-06-11 09:12:00,
2013-06-11 05:17:00,74.3,71.8,30.00,North,1,0.0,0.0,92,0.00,,---,0.00,VWS V14.01,2013-06-11 09:17:00,
2013-06-11 05:22:00,74.3,72.2,30.00,North,2,0.0,0.0,93,0.00,,---,0.00,VWS V14.01,2013-06-11 09:22:00,
2013-06-11 05:27:00,74.3,72.2,30.00,North,2,0.0,0.0,93,0.00,,---,0.00,VWS V14.01,2013-06-11 09:27:00,
2013-06-11 05:32:00,74.3,72.2,30.00,North,4,0.0,0.0,93,0.00,,---,0.00,VWS V14.01,2013-06-11 09:32:00,
2013-06-11 05:37:00,74.3,72.2,30.00,North,4,0.0,0.0,93,0.00,,---,0.00,VWS V14.01,2013-06-11 09:37:00,
2013-06-11 05:42:00,74.3,72.2,30.00,North,4,0.0,0.0,93,0.00,,---,0.00,VWS V14.01,2013-06-11 09:42:00,
2013-06-11 05:47:00,74.3,72.2,30.00,North,4,0.0,0.0,93,0.00,,---,0.00,VWS V14.01,2013-06-11 09:47:00,
2013-06-11 05:52:00,74.3,72.2,30.00,North,4,0.0,0.0,93,0.00,,---,0.00,VWS V14.01,2013-06-11 09:52:00,
2013-06-11 05:57:00,74.3,72.2,30.00,North,4,0.0,0.0,93,0.00,,---,0.00,VWS V14.01,2013-06-11 09:57:00,
2013-06-11 06:02:00,74.3,72.2,30.00,North,4,0.0,0.0,93,0.00,,---,0.00,VWS V14.01,2013-06-11 10:02:00,
2013-06-11 06:07:00,74.3,72.2,30.00,North,9,0.0,0.0,93,0.00,,---,0.00,VWS V14.01,2013-06-11 10:07:00,
2013-06-11 06:12:00,74.3,72.2,30.00,North,10,0.0,0.0,93,0.00,,---,0.00,VWS V14.01,2013-06-11 10:12:00,
2013-06-11 06:17:00,74.3,72.2,30.00,North,9,0.0,0.0,93,0.00,,---,0.00,VWS V14.01,2013-06-11 10:17:00,
2013-06-11 06:22:00,74.1,72.0,30.00,North,9,0.0,0.0,93,0.00,,---,0.00,VWS V14.01,2013-06-11 10:22:00,
2013-06-11 06:27:00,74.1,72.0,30.00,North,10,0.0,0.0,93,0.00,,---,0.00,VWS V14.01,2013-06-11 10:27:00,
2013-06-11 06:32:00,74.1,72.3,30.00,North,10,0.0,0.0,94,0.00,,---,0.00,VWS V14.01,2013-06-11 10:32:00,
2013-06-11 06:37:00,74.1,72.3,30.00,North,9,0.0,0.0,94,0.00,,---,0.00,VWS V14.01,2013-06-11 10:37:00,
2013-06-11 06:42:00,74.1,72.6,30.00,North,9,0.0,0.0,95,0.00,,---,0.00,VWS V14.01,2013-06-11 10:42:00,
2013-06-11 06:47:00,74.1,72.6,30.00,North,10,0.0,0.0,95,0.00,,---,0.00,VWS V14.01,2013-06-11 10:47:00,
2013-06-11 06:52:00,74.1,72.6,30.00,North,1,0.0,0.0,95,0.00,,---,0.00,VWS V14.01,2013-06-11 10:52:00,
2013-06-11 06:57:00,74.3,73.1,30.00,North,1,0.0,0.0,96,0.00,,---,0.00,VWS V14.01,2013-06-11 10:57:00,
2013-06-11 07:02:00,74.5,73.3,30.00,NNE,15,0.0,0.0,96,0.00,,---,0.00,VWS V14.01,2013-06-11 11:02:00,
2013-06-11 07:07:00,74.5,73.6,30.00,NE,41,0.0,0.0,97,0.00,,---,0.00,VWS V14.01,2013-06-11 11:07:00,
2013-06-11 07:12:00,74.7,73.8,30.00,North,11,0.0,0.0,97,0.00,,---,0.00,VWS V14.01,2013-06-11 11:12:00,
2013-06-11 07:17:00,74.8,73.9,30.00,NNE,15,0.0,0.0,97,0.00,,---,0.00,VWS V14.01,2013-06-11 11:17:00,
2013-06-11 07:22:00,74.8,73.9,30.00,NNE,15,0.0,0.0,97,0.00,,---,0.00,VWS V14.01,2013-06-11 11:22:00,
2013-06-11 07:27:00,75.0,74.1,30.00,NNE,15,0.0,0.0,97,0.00,,---,0.00,VWS V14.01,2013-06-11 11:27:00,
2013-06-11 07:32:00,75.2,74.3,30.00,NNE,15,0.0,0.0,97,0.00,,---,0.00,VWS V14.01,2013-06-11 11:32:00,
2013-06-11 07:37:00,75.4,74.5,30.00,North,357,0.0,0.0,97,0.00,,---,0.00,VWS V14.01,2013-06-11 11:37:00,
2013-06-11 07:42:00,75.6,74.7,30.00,North,357,0.0,0.0,97,0.00,,---,0.00,VWS V14.01,2013-06-11 11:42:00,
2013-06-11 07:47:00,75.9,75.0,30.00,North,357,0.0,0.0,97,0.00,,---,0.00,VWS V14.01,2013-06-11 11:47:00,
2013-06-11 07:52:00,76.1,75.2,30.00,North,5,0.0,0.0,97,0.00,,---,0.00,VWS V14.01,2013-06-11 11:52:00,
2013-06-11 07:57:00,76.3,75.4,30.00,ENE,60,0.0,0.0,97,0.00,,---,0.00,VWS V14.01,2013-06-11 11:57:00,
2013-06-11 08:02:00,76.6,75.7,30.00,ENE,60,0.0,0.0,97,0.00,,---,0.00,VWS V14.01,2013-06-11 12:02:00,
2013-06-11 08:07:00,77.0,75.8,30.00,ENE,60,0.0,0.0,96,0.00,,---,0.00,VWS V14.01,2013-06-11 12:07:00,
2013-06-11 08:12:00,77.4,76.1,30.00,NE,48,0.0,0.0,96,0.00,,---,0.00,VWS V14.01,2013-06-11 12:12:00,
2013-06-11 08:17:00,77.7,76.5,30.00,NE,37,0.0,0.0,96,0.00,,---,0.00,VWS V14.01,2013-06-11 12:17:00,
2013-06-11 08:22:00,77.9,76.4,30.00,NNE,12,0.0,0.0,95,0.00,,---,0.00,VWS V14.01,2013-06-11 12:22:00,
2013-06-11 08:27:00,77.9,76.4,30.00,NNE,28,0.0,0.0,95,0.00,,---,0.00,VWS V14.01,2013-06-11 12:27:00,
2013-06-11 08:32:00,78.3,76.7,30.00,East,81,0.0,0.0,95,0.00,,---,0.00,VWS V14.01,2013-06-11 12:32:00,
2013-06-11 08:37:00,78.4,76.9,30.00,SE,145,0.0,2.2,95,0.00,,---,0.00,VWS V14.01,2013-06-11 12:37:00,
2013-06-11 08:42:00,78.6,76.8,30.00,NNW,341,0.0,0.0,94,0.00,,---,0.00,VWS V14.01,2013-06-11 12:42:00,
2013-06-11 08:47:00,78.8,76.9,30.03,SE,139,0.0,0.0,94,0.00,,---,0.00,VWS V14.01,2013-06-11 12:47:00,
2013-06-11 08:52:00,79.2,77.0,30.03,North,2,0.0,0.0,93,0.00,,---,0.00,VWS V14.01,2013-06-11 12:52:00,
2013-06-11 08:57:00,79.2,77.0,30.03,East,86,0.0,2.7,93,0.00,,---,0.00,VWS V14.01,2013-06-11 12:57:00,
2013-06-11 09:02:00,79.5,77.3,30.03,NNW,329,0.0,0.0,93,0.00,,---,0.00,VWS V14.01,2013-06-11 13:02:00,
2013-06-11 09:07:00,79.7,77.2,30.03,SW,226,2.2,2.2,92,0.00,,---,0.00,VWS V14.01,2013-06-11 13:07:00,
2013-06-11 09:12:00,79.9,77.0,30.03,NNW,334,3.6,4.0,91,0.00,,---,0.00,VWS V14.01,2013-06-11 13:12:00,
2013-06-11 09:17:00,80.2,77.4,30.03,SSE,158,0.0,0.0,91,0.00,,---,0.00,VWS V14.01,2013-06-11 13:17:00,
2013-06-11 09:22:00,80.6,76.7,30.03,SSW,213,2.2,2.2,88,0.00,,---,0.00,VWS V14.01,2013-06-11 13:22:00,
2013-06-11 09:27:00,80.6,76.4,30.03,SSW,205,0.0,0.0,87,0.00,,---,0.00,VWS V14.01,2013-06-11 13:27:00,
2013-06-11 09:32:00,80.8,75.8,30.03,SSW,197,0.0,0.0,85,0.00,,---,0.00,VWS V14.01,2013-06-11 13:32:00,
2013-06-11 09:37:00,81.0,75.3,30.03,South,183,0.0,0.0,83,0.00,,---,0.00,VWS V14.01,2013-06-11 13:37:00,
2013-06-11 09:42:00,81.1,74.8,30.03,South,178,0.0,0.0,81,0.00,,---,0.00,VWS V14.01,2013-06-11 13:42:00,
2013-06-11 09:47:00,81.5,74.7,30.03,North,353,2.7,2.7,80,0.00,,---,0.00,VWS V14.01,2013-06-11 13:47:00,
2013-06-11 09:52:00,81.7,74.2,30.03,NNE,12,0.0,0.0,78,0.00,,---,0.00,VWS V14.01,2013-06-11 13:52:00,
2013-06-11 09:57:00,81.9,73.9,30.03,ENE,71,0.0,0.0,77,0.00,,---,0.00,VWS V14.01,2013-06-11 13:57:00,
2013-06-11 10:02:00,82.0,73.7,30.03,East,90,2.7,3.1,76,0.00,,---,0.00,VWS V14.01,2013-06-11 14:02:00,
2013-06-11 10:07:00,82.0,72.9,30.03,SE,128,0.0,0.0,74,0.00,,---,0.00,VWS V14.01,2013-06-11 14:07:00,
2013-06-11 10:12:00,82.6,73.5,30.03,WSW,246,0.0,0.0,74,0.00,,---,0.00,VWS V14.01,2013-06-11 14:12:00,
2013-06-11 10:17:00,82.8,73.6,30.03,NNE,22,0.0,0.0,74,0.00,,---,0.00,VWS V14.01,2013-06-11 14:17:00,
2013-06-11 10:22:00,82.9,72.2,30.03,South,182,2.7,2.7,70,0.00,,---,0.00,VWS V14.01,2013-06-11 14:22:00,
2013-06-11 10:27:00,83.3,73.3,30.03,ENE,57,4.0,4.9,72,0.00,,---,0.00,VWS V14.01,2013-06-11 14:27:00,
2013-06-11 10:32:00,83.8,72.2,30.03,North,357,2.2,2.2,68,0.00,,---,0.00,VWS V14.01,2013-06-11 14:32:00,
2013-06-11 10:37:00,84.4,72.2,30.03,North,4,3.1,3.6,67,0.00,,---,0.00,VWS V14.01,2013-06-11 14:37:00,
2013-06-11 10:42:00,84.9,72.3,30.03,NNW,345,0.0,2.2,66,0.00,,---,0.00,VWS V14.01,2013-06-11 14:42:00,
2013-06-11 10:47:00,85.1,72.5,30.03,NW,312,0.0,2.2,66,0.00,,---,0.00,VWS V14.01,2013-06-11 14:47:00,
2013-06-11 10:52:00,84.2,70.7,30.03,WNW,291,5.4,5.4,64,0.00,,---,0.00,VWS V14.01,2013-06-11 14:52:00,
2013-06-11 10:57:00,82.6,69.2,30.03,NNW,342,2.2,2.2,64,0.00,,---,0.00,VWS V14.01,2013-06-11 14:57:00,
2013-06-11 11:02:00,82.4,69.5,30.03,NNW,342,2.2,2.2,65,0.12,,---,0.12,VWS V14.01,2013-06-11 15:02:00,
2013-06-11 11:07:00,77.5,76.0,30.03,NNW,342,2.2,2.2,95,0.39,,---,0.39,VWS V14.01,2013-06-11 15:07:00,
2013-06-11 11:12:00,76.1,75.5,30.03,NNW,342,2.2,2.2,98,0.55,,---,0.55,VWS V14.01,2013-06-11 15:12:00,
2013-06-11 11:17:00,74.8,74.5,30.03,NNW,342,2.2,2.2,99,0.63,,---,0.63,VWS V14.01,2013-06-11 15:17:00,
2013-06-11 11:22:00,73.9,73.9,30.03,NNW,342,2.2,2.2,100,0.67,,---,0.67,VWS V14.01,2013-06-11 15:22:00,
2013-06-11 11:27:00,73.4,73.4,30.03,NNW,342,2.2,2.2,100,0.67,,---,0.67,VWS V14.01,2013-06-11 15:27:00,
2013-06-11 11:32:00,73.4,73.4,30.03,NNW,342,2.2,2.2,100,0.67,,---,0.67,VWS V14.01,2013-06-11 15:32:00,
2013-06-11 11:37:00,74.1,74.1,30.03,NNW,342,2.2,2.2,100,0.67,,---,0.67,VWS V14.01,2013-06-11 15:37:00,
2013-06-11 11:42:00,74.8,74.8,30.03,NNW,342,2.2,2.2,100,0.67,,---,0.67,VWS V14.01,2013-06-11 15:42:00,
2013-06-11 11:47:00,75.6,75.6,30.03,NNW,342,2.2,2.2,100,0.67,,---,0.67,VWS V14.01,2013-06-11 15:47:00,
2013-06-11 11:52:00,75.9,75.9,30.03,WSW,247,0.0,0.0,100,0.67,,---,0.67,VWS V14.01,2013-06-11 15:52:00,
2013-06-11 11:57:00,76.6,76.7,30.03,WSW,246,0.0,0.0,100,0.67,,---,0.67,VWS V14.01,2013-06-11 15:57:00,
2013-06-11 12:02:00,77.2,77.2,30.03,WSW,252,0.0,0.0,100,0.59,,---,0.67,VWS V14.01,2013-06-11 16:02:00,
2013-06-11 12:07:00,77.4,77.4,30.03,WSW,252,0.0,0.0,100,0.28,,---,0.67,VWS V14.01,2013-06-11 16:07:00,
2013-06-11 12:12:00,77.4,77.4,30.03,West,259,0.0,0.0,100,0.12,,---,0.67,VWS V14.01,2013-06-11 16:12:00,
2013-06-11 12:17:00,77.2,77.2,30.03,West,259,0.0,0.0,100,0.04,,---,0.67,VWS V14.01,2013-06-11 16:17:00,
2013-06-11 12:22:00,77.5,77.6,30.03,NNE,25,0.0,0.0,100,0.00,,---,0.67,VWS V14.01,2013-06-11 16:22:00,
2013-06-11 12:27:00,78.1,78.1,30.03,North,5,0.0,0.0,100,0.00,,---,0.67,VWS V14.01,2013-06-11 16:27:00,
2013-06-11 12:32:00,79.0,79.0,30.03,West,269,2.2,2.2,100,0.00,,---,0.00,VWS V14.01,2013-06-11 16:32:00,
2013-06-11 12:37:00,78.8,78.8,30.03,West,281,3.1,4.0,100,0.00,,---,0.67,VWS V14.01,2013-06-11 16:37:00,
2013-06-11 12:42:00,78.6,78.6,30.03,SSW,207,0.0,0.0,100,0.00,,---,0.67,VWS V14.01,2013-06-11 16:42:00,
2013-06-11 12:47:00,78.6,78.6,30.03,SW,233,0.0,0.0,100,0.00,,---,0.67,VWS V14.01,2013-06-11 16:47:00,
2013-06-11 12:52:00,78.4,78.4,30.03,SSW,210,2.2,2.7,100,0.00,,---,0.67,VWS V14.01,2013-06-11 16:52:00,
2013-06-11 12:57:00,78.6,78.6,30.03,South,188,0.0,0.0,100,0.04,,---,0.71,VWS V14.01,2013-06-11 16:57:00,
2013-06-11 13:02:00,78.6,78.6,30.03,WNW,288,0.0,0.0,100,0.04,,---,0.71,VWS V14.01,2013-06-11 17:02:00,
2013-06-11 13:07:00,79.3,79.3,30.03,WNW,288,0.0,0.0,100,0.04,,---,0.71,VWS V14.01,2013-06-11 17:07:00,
2013-06-11 13:12:00,80.1,80.1,30.03,WNW,290,0.0,0.0,100,0.04,,---,0.71,VWS V14.01,2013-06-11 17:12:00,
2013-06-11 13:17:00,80.4,80.4,30.03,West,281,2.2,4.0,100,0.04,,---,0.71,VWS V14.01,2013-06-11 17:17:00,
2013-06-11 13:22:00,80.4,80.4,30.03,West,280,0.0,0.0,100,0.04,,---,0.71,VWS V14.01,2013-06-11 17:22:00,
2013-06-11 13:27:00,80.4,80.4,30.03,WNW,283,4.0,5.4,100,0.04,,---,0.71,VWS V14.01,2013-06-11 17:27:00,
2013-06-11 13:32:00,80.2,80.2,30.03,WSW,238,3.6,3.6,100,0.04,,---,0.71,VWS V14.01,2013-06-11 17:32:00,
2013-06-11 13:37:00,79.3,79.3,30.03,SW,221,3.6,4.5,100,0.04,,---,0.71,VWS V14.01,2013-06-11 17:37:00,
2013-06-11 13:42:00,79.2,79.2,30.03,WNW,294,5.4,5.4,100,0.04,,---,0.71,VWS V14.01,2013-06-11 17:42:00,
2013-06-11 13:47:00,79.2,79.2,30.03,SW,219,3.6,3.6,100,0.04,,---,0.71,VWS V14.01,2013-06-11 17:47:00,
2013-06-11 13:52:00,79.3,79.3,30.03,WNW,285,3.1,3.1,100,0.04,,---,0.71,VWS V14.01,2013-06-11 17:52:00,
2013-06-11 13:57:00,79.5,79.5,30.03,WNW,300,3.6,4.0,100,0.00,,---,0.71,VWS V14.01,2013-06-11 17:57:00,
2013-06-11 14:02:00,79.7,79.7,30.00,NNW,331,0.0,0.0,100,0.00,,---,0.71,VWS V14.01,2013-06-11 18:02:00,
2013-06-11 14:07:00,79.9,79.9,30.00,SW,227,2.2,3.6,100,0.00,,---,0.71,VWS V14.01,2013-06-11 18:07:00,
2013-06-11 14:12:00,79.9,79.9,30.00,West,272,4.0,5.8,100,0.00,,---,0.71,VWS V14.01,2013-06-11 18:12:00,
2013-06-11 14:17:00,79.9,79.9,30.00,SSE,167,0.0,2.7,100,0.00,,---,0.71,VWS V14.01,2013-06-11 18:17:00,
2013-06-11 14:22:00,80.4,80.4,30.00,SSW,202,3.1,3.1,100,0.00,,---,0.71,VWS V14.01,2013-06-11 18:22:00,
2013-06-11 14:27:00,80.2,80.2,30.00,NNW,345,0.0,0.0,100,0.00,,---,0.71,VWS V14.01,2013-06-11 18:27:00,
2013-06-11 14:32:00,80.6,80.6,30.00,WNW,291,3.1,3.6,100,0.00,,---,0.71,VWS V14.01,2013-06-11 18:32:00,
2013-06-11 14:37:00,80.4,80.4,30.00,NW,314,0.0,0.0,100,0.00,,---,0.71,VWS V14.01,2013-06-11 18:37:00,
2013-06-11 14:42:00,80.8,80.8,30.00,North,353,4.0,4.0,100,0.00,,---,0.71,VWS V14.01,2013-06-11 18:42:00,
2013-06-11 14:47:00,80.1,80.1,30.00,North,5,5.8,5.8,100,0.00,,---,0.71,VWS V14.01,2013-06-11 18:47:00,
2013-06-11 14:52:00,79.3,79.3,30.00,NNE,16,2.7,3.1,100,0.00,,---,0.71,VWS V14.01,2013-06-11 18:52:00,
2013-06-11 14:57:00,79.2,79.2,30.00,NE,35,2.7,2.7,100,0.00,,---,0.71,VWS V14.01,2013-06-11 18:57:00,
2013-06-11 15:02:00,78.8,78.8,30.00,North,7,3.6,3.6,100,0.00,,---,0.71,VWS V14.01,2013-06-11 19:02:00,
2013-06-11 15:07:00,77.9,77.9,30.00,North,9,3.1,3.1,100,0.00,,---,0.71,VWS V14.01,2013-06-11 19:07:00,
2013-06-11 15:12:00,76.8,76.8,30.00,North,11,4.0,4.0,100,0.00,,---,0.71,VWS V14.01,2013-06-11 19:12:00,
2013-06-11 15:17:00,76.3,76.3,30.00,North,11,4.9,4.9,100,0.00,,---,0.71,VWS V14.01,2013-06-11 19:17:00,
2013-06-11 15:22:00,76.5,76.5,30.00,North,2,4.9,4.9,100,0.00,,---,0.71,VWS V14.01,2013-06-11 19:22:00,
2013-06-11 15:27:00,77.4,77.4,30.00,North,353,5.8,5.8,100,0.00,,---,0.71,VWS V14.01,2013-06-11 19:27:00,
2013-06-11 15:32:00,77.5,77.6,30.00,NNW,337,4.0,4.0,100,0.00,,---,0.71,VWS V14.01,2013-06-11 19:32:00,
2013-06-11 15:37:00,78.1,78.1,30.00,North,353,2.7,4.0,100,0.00,,---,0.71,VWS V14.01,2013-06-11 19:37:00,
2013-06-11 15:42:00,77.9,77.9,30.00,North,2,2.7,4.0,100,0.00,,---,0.71,VWS V14.01,2013-06-11 19:42:00,
2013-06-11 15:47:00,78.3,78.3,30.00,North,2,4.0,5.4,100,0.00,,---,0.71,VWS V14.01,2013-06-11 19:47:00,
2013-06-11 15:52:00,78.6,78.6,30.00,North,2,4.0,4.0,100,0.00,,---,0.71,VWS V14.01,2013-06-11 19:52:00,
2013-06-11 15:57:00,78.6,78.6,30.00,NNE,25,3.6,3.6,100,0.00,,---,0.71,VWS V14.01,2013-06-11 19:57:00,
2013-06-11 16:02:00,78.8,78.8,30.00,NW,322,2.2,2.7,100,0.00,,---,0.71,VWS V14.01,2013-06-11 20:02:00,
2013-06-11 16:07:00,79.3,79.3,30.00,NW,321,0.0,0.0,100,0.00,,---,0.71,VWS V14.01,2013-06-11 20:07:00,
2013-06-11 16:12:00,79.5,79.5,29.97,West,272,2.2,2.2,100,0.00,,---,0.71,VWS V14.01,2013-06-11 20:12:00,
2013-06-11 16:17:00,79.7,79.7,29.97,North,2,2.2,2.7,100,0.00,,---,0.71,VWS V14.01,2013-06-11 20:17:00,
2013-06-11 16:22:00,79.7,79.7,29.97,WNW,298,2.7,2.7,100,0.00,,---,0.71,VWS V14.01,2013-06-11 20:22:00,
2013-06-11 16:27:00,79.7,79.7,29.97,WNW,284,4.9,4.9,100,0.00,,---,0.71,VWS V14.01,2013-06-11 20:27:00,
2013-06-11 16:32:00,79.7,79.7,29.97,North,2,0.0,2.7,100,0.00,,---,0.71,VWS V14.01,2013-06-11 20:32:00,
2013-06-11 16:38:00,79.7,79.7,29.97,WNW,284,3.6,4.0,100,0.00,,---,0.71,VWS V14.01,2013-06-11 20:38:00,
2013-06-11 16:43:00,79.7,79.7,29.97,SE,143,2.2,2.7,100,0.00,,---,0.71,VWS V14.01,2013-06-11 20:43:00,
2013-06-11 16:48:00,79.7,79.7,29.97,WNW,296,0.0,0.0,100,0.00,,---,0.71,VWS V14.01,2013-06-11 20:48:00,
2013-06-11 16:53:00,79.7,79.7,29.97,West,259,2.7,3.6,100,0.00,,---,0.71,VWS V14.01,2013-06-11 20:53:00,
2013-06-11 16:58:00,79.7,79.7,29.97,NNW,332,0.0,3.1,100,0.00,,---,0.71,VWS V14.01,2013-06-11 20:58:00,
2013-06-11 17:03:00,79.7,79.7,29.97,SSW,210,5.8,5.8,100,0.00,,---,0.71,VWS V14.01,2013-06-11 21:03:00,
2013-06-11 17:08:00,79.7,79.7,29.97,NW,315,0.0,3.6,100,0.00,,---,0.71,VWS V14.01,2013-06-11 21:08:00,
2013-06-11 17:13:00,79.7,79.7,29.97,North,357,2.2,2.7,100,0.00,,---,0.71,VWS V14.01,2013-06-11 21:13:00,
2013-06-11 17:18:00,79.7,79.7,29.97,NNE,17,3.1,3.6,100,0.00,,---,0.71,VWS V14.01,2013-06-11 21:18:00,
2013-06-11 17:23:00,79.7,79.7,29.97,NE,40,0.0,2.2,100,0.00,,---,0.71,VWS V14.01,2013-06-11 21:23:00,
2013-06-11 17:28:00,79.7,79.7,29.97,West,259,4.9,4.9,100,0.00,,---,0.71,VWS V14.01,2013-06-11 21:28:00,
2013-06-11 17:33:00,79.7,79.7,29.97,NNW,341,2.7,3.1,100,0.00,,---,0.71,VWS V14.01,2013-06-11 21:33:00,
2013-06-11 17:38:00,79.7,79.7,29.97,WSW,256,3.6,3.6,100,0.00,,---,0.71,VWS V14.01,2013-06-11 21:38:00,
2013-06-11 17:43:00,79.7,79.7,29.97,NNW,346,2.7,2.7,100,0.00,,---,0.71,VWS V14.01,2013-06-11 21:43:00,
2013-06-11 17:48:00,83.3,80.4,29.97,WSW,238,3.6,3.6,91,0.00,,---,0.71,VWS V14.01,2013-06-11 21:48:00,
2013-06-11 17:53:00,83.3,80.4,29.97,North,353,3.1,4.9,91,0.00,,---,0.71,VWS V14.01,2013-06-11 21:53:00,
2013-06-11 17:58:00,82.6,74.6,29.97,West,265,5.8,5.8,77,0.00,,---,0.71,VWS V14.01,2013-06-11 21:58:00,
2013-06-11 18:03:00,82.8,76.7,29.97,North,353,3.1,3.1,82,0.00,,---,0.71,VWS V14.01,2013-06-11 22:03:00,
2013-06-11 18:08:00,82.6,76.5,29.97,North,9,0.0,2.2,82,0.00,,---,0.71,VWS V14.01,2013-06-11 22:08:00,
2013-06-11 18:12:00,82.6,77.6,29.97,North,5,3.1,5.8,85,0.00,,---,0.71,VWS V14.01,2013-06-11 22:12:00,
2013-06-11 18:17:00,82.6,76.2,29.97,North,353,4.0,4.9,81,0.00,,---,0.71,VWS V14.01,2013-06-11 22:17:00,
2013-06-11 18:22:00,82.4,74.5,29.97,NNW,341,3.1,3.6,77,0.00,,---,0.71,VWS V14.01,2013-06-11 22:22:00,
2013-06-11 18:28:00,82.4,74.5,29.97,NNW,331,3.1,3.1,77,0.00,,---,0.71,VWS V14.01,2013-06-11 22:28:00,
2013-06-11 18:33:00,82.4,74.5,29.97,North,2,2.7,3.6,77,0.00,,---,0.71,VWS V14.01,2013-06-11 22:33:00,
2013-06-11 18:38:00,82.4,74.5,29.97,North,1,0.0,2.2,77,0.00,,---,0.71,VWS V14.01,2013-06-11 22:38:00,
2013-06-11 18:43:00,82.2,77.6,29.97,North,357,2.2,2.2,86,0.00,,---,0.71,VWS V14.01,2013-06-11 22:43:00,
2013-06-11 18:48:00,82.2,77.6,29.97,North,357,4.9,8.1,86,0.00,,---,0.71,VWS V14.01,2013-06-11 22:48:00,
2013-06-11 18:53:00,82.2,77.6,29.97,North,4,3.1,4.9,86,0.00,,---,0.71,VWS V14.01,2013-06-11 22:53:00,
2013-06-11 18:58:00,82.2,77.6,29.97,North,5,3.6,5.4,86,0.00,,---,0.71,VWS V14.01,2013-06-11 22:58:00,
2013-06-11 19:03:00,82.2,77.6,29.97,North,2,2.2,2.2,86,0.00,,---,0.71,VWS V14.01,2013-06-11 23:03:00,
2013-06-11 19:08:00,82.2,77.6,29.97,NNE,21,0.0,0.0,86,0.00,,---,0.71,VWS V14.01,2013-06-11 23:08:00,
2013-06-11 19:13:00,82.2,77.6,29.97,NNW,336,0.0,0.0,86,0.00,,---,0.71,VWS V14.01,2013-06-11 23:13:00,
2013-06-11 19:18:00,82.2,77.6,29.97,North,357,0.0,0.0,86,0.00,,---,0.71,VWS V14.01,2013-06-11 23:18:00,
2013-06-11 19:23:00,82.2,77.6,29.97,East,79,2.2,2.2,86,0.00,,---,0.71,VWS V14.01,2013-06-11 23:23:00,
2013-06-11 19:28:00,82.2,77.6,29.97,North,1,3.1,3.1,86,0.00,,---,0.71,VWS V14.01,2013-06-11 23:28:00,
2013-06-11 19:33:00,82.2,77.6,29.97,NNE,15,4.0,4.0,86,0.00,,---,0.71,VWS V14.01,2013-06-11 23:33:00,
2013-06-11 19:38:00,82.2,77.6,29.97,North,357,0.0,0.0,86,0.00,,---,0.71,VWS V14.01,2013-06-11 23:38:00,
2013-06-11 19:43:00,82.2,77.6,29.97,North,357,0.0,0.0,86,0.00,,---,0.71,VWS V14.01,2013-06-11 23:43:00,
2013-06-11 19:48:00,82.2,77.6,29.97,North,357,0.0,0.0,86,0.00,,---,0.71,VWS V14.01,2013-06-11 23:48:00,
2013-06-11 19:53:00,82.2,77.6,29.97,North,357,0.0,0.0,86,0.00,,---,0.71,VWS V14.01,2013-06-11 23:53:00,
2013-06-11 19:58:00,82.2,77.6,29.97,North,357,0.0,0.0,86,0.00,,---,0.71,VWS V14.01,2013-06-11 23:58:00,
2013-06-11 20:03:00,82.2,77.6,29.97,North,357,0.0,0.0,86,0.00,,---,0.71,VWS V14.01,2013-06-12 00:03:00,
2013-06-11 20:08:00,82.2,77.6,29.97,North,357,0.0,0.0,86,0.00,,---,0.71,VWS V14.01,2013-06-12 00:08:00,
2013-06-11 20:13:00,82.2,77.6,29.97,North,357,0.0,0.0,86,0.00,,---,0.71,VWS V14.01,2013-06-12 00:13:00,
2013-06-11 20:18:00,82.2,77.6,29.97,North,357,0.0,0.0,86,0.00,,---,0.71,VWS V14.01,2013-06-12 00:18:00,
2013-06-11 20:23:00,82.2,77.6,29.97,North,357,0.0,0.0,86,0.00,,---,0.71,VWS V14.01,2013-06-12 00:23:00,
2013-06-11 20:28:00,82.2,77.6,29.97,North,357,0.0,0.0,86,0.00,,---,0.71,VWS V14.01,2013-06-12 00:28:00,
2013-06-11 20:33:00,82.2,77.6,29.97,North,357,0.0,0.0,86,0.00,,---,0.71,VWS V14.01,2013-06-12 00:33:00,
2013-06-11 20:38:00,82.2,77.6,29.97,North,357,0.0,0.0,86,0.00,,---,0.71,VWS V14.01,2013-06-12 00:38:00,
2013-06-11 20:43:00,82.2,77.6,29.97,North,357,0.0,0.0,86,0.00,,---,0.71,VWS V14.01,2013-06-12 00:43:00,
2013-06-11 20:48:00,79.7,78.8,29.97,North,357,0.0,0.0,97,0.00,,---,0.71,VWS V14.01,2013-06-12 00:48:00,
2013-06-11 20:53:00,79.5,78.6,29.97,North,357,0.0,0.0,97,0.00,,---,0.71,VWS V14.01,2013-06-12 00:53:00,
2013-06-11 20:58:00,79.3,78.1,29.97,North,357,0.0,0.0,96,0.00,,---,0.71,VWS V14.01,2013-06-12 00:58:00,
2013-06-11 21:03:00,79.2,78.2,29.97,North,357,0.0,0.0,97,0.00,,---,0.71,VWS V14.01,2013-06-12 01:03:00,
2013-06-11 21:08:00,79.0,77.4,29.97,North,357,0.0,0.0,95,0.00,,---,0.71,VWS V14.01,2013-06-12 01:08:00,
2013-06-11 21:13:00,78.8,76.9,29.97,North,357,0.0,0.0,94,0.00,,---,0.71,VWS V14.01,2013-06-12 01:13:00,
2013-06-11 21:18:00,78.8,76.9,29.97,North,357,0.0,0.0,94,0.00,,---,0.71,VWS V14.01,2013-06-12 01:18:00,
2013-06-11 21:23:00,78.6,77.1,29.97,North,357,0.0,0.0,95,0.00,,---,0.71,VWS V14.01,2013-06-12 01:23:00,
2013-06-11 21:28:00,78.4,77.2,29.97,North,357,0.0,0.0,96,0.00,,---,0.71,VWS V14.01,2013-06-12 01:28:00,
2013-06-11 21:33:00,78.6,77.7,29.97,North,357,0.0,0.0,97,0.00,,---,0.71,VWS V14.01,2013-06-12 01:33:00,
2013-06-11 21:38:00,78.6,77.7,29.97,North,357,0.0,0.0,97,0.00,,---,0.71,VWS V14.01,2013-06-12 01:38:00,
2013-06-11 21:43:00,78.6,77.7,29.97,North,357,0.0,0.0,97,0.00,,---,0.71,VWS V14.01,2013-06-12 01:43:00,
2013-06-11 21:48:00,78.6,77.7,29.97,North,357,0.0,0.0,97,0.00,,---,0.71,VWS V14.01,2013-06-12 01:48:00,
2013-06-11 21:53:00,78.6,78.0,29.97,North,357,0.0,0.0,98,0.00,,---,0.71,VWS V14.01,2013-06-12 01:53:00,
2013-06-11 21:58:00,78.8,78.2,29.97,North,357,0.0,0.0,98,0.00,,---,0.71,VWS V14.01,2013-06-12 01:58:00,
2013-06-11 22:03:00,78.8,78.2,29.97,North,357,0.0,0.0,98,0.00,,---,0.71,VWS V14.01,2013-06-12 02:03:00,
2013-06-11 22:08:00,78.6,78.3,29.97,North,357,0.0,0.0,99,0.00,,---,0.71,VWS V14.01,2013-06-12 02:08:00,
2013-06-11 22:13:00,78.6,78.0,29.97,North,9,2.7,3.6,98,0.00,,---,0.71,VWS V14.01,2013-06-12 02:13:00,
2013-06-11 22:18:00,78.6,78.0,29.97,NNW,348,3.1,3.1,98,0.00,,---,0.71,VWS V14.01,2013-06-12 02:18:00,